Regional Weather Roundup
Issued by NWS Grand Forks, ND

Home | Current Version | Previous Version | Graphics & Text | Print | Product List | Glossary On
Versions: 1 2 3 4 5 6 7 8 9 10 11 12 13 14 15 16 17 18 19 20 21 22 23 24 25 26 27 28 29 30 31 32 33 34 35 36 37 38 39 40 41 42 43 44 45 46 47 48 49 50
000
ASUS43 KFGF 261310
RWRFGF
PRAIRIE TO PINES  WEATHER ROUNDUP
NATIONAL WEATHER SERVICE EASTERN NORTH DAKOTA/GRAND FORKS ND
800 AM CDT FRI AUG 26 2016

 **SATELLITE DATA USED TO AUGMENT SKY COVER AT AUTOMATED STATIONS**
 *****  WEATHER ACROSS EASTERN NORTH DAKOTA  *****

CITY           SKY/WX    TMP DP  RH WIND       PRES   REMARKS
GRAND FORKS    SUNNY     53  49  86 SE3       30.07S
GRAND FRKS AFB SUNNY     56  49  78 S1        30.06F
DEVILS LAKE    SUNNY     58  49  72 SW10      30.07S
FARGO          SUNNY     55  50  83 S6        30.11S
WAHPETON ARPT  SUNNY     52  48  87 S3        30.14S
$$

 ***** WEATHER ACROSS CENTRAL AND WESTERN NORTH DAKOTA  *****

CITY           SKY/WX    TMP DP  RH WIND       PRES   REMARKS
BISMARCK       CLOUDY    48  45  89 CALM      30.12F
MINOT          CLEAR     56  45  66 SW10      30.03F
JAMESTOWN      SUNNY     52  48  86 SW7       30.10F
MINOT AFB      CLEAR     52  44  73 NW3       30.03R
GARRISON         N/A     49  47  93 S3        30.07F
WILLISTON      MOCLDY    52  43  71 S5        30.06S
DICKINSON      PTCLDY    48  41  76 SW8       30.09S
HETTINGER      CLOUDY    49  42  77 S5        30.13F
$$

 *****  OTHER AIRPORT OBSERVATIONS IN OUR AREA  *****

CITY           SKY/WX    TMP DP  RH WIND       PRES   REMARKS
WALHALLA       NOT AVBL
GRAFTON AIRPOR FAIR      50  50 100 S3        30.07F
VALLEY CITY AR FAIR      50  50 100 S6        30.13S
CANDO          NOT AVBL
CAVALIER APRT  FAIR      50  48  93 CALM      30.05S
GWINNER        FAIR      52  50  93 SW10      30.15R
SHEYENNE NWR     N/A     51  50  97 SW6       29.95
ROLLA          FAIR      50  46  87 SW9       30.05S
 ***** THE ABOVE OBSERVATIONS ARE NON NWS ARE NOT QUALITY
       CONTROLLED AND MAY MIS-REPORT RAIN FOR SNOW...
$$

  *****  WEATHER ACROSS NORTHERN MINNESOTA  *****

CITY           SKY/WX    TMP DP  RH WIND       PRES   REMARKS
FLAG ISLAND    SUNNY     57  48  72 CALM      30.06S
WARROAD        SUNNY     50  46  87 CALM      30.08F
ROSEAU         SUNNY     50  45  81 S5        30.07F
HALLOCK        SUNNY     48  46  93 S6        30.06S
THF RVR FALLS  SUNNY     51  49  92 S5        30.10S
BAUDETTE       SUNNY     50  48  93 S5        30.09R
WASKISH        SUNNY     52  50  93 CALM      30.10S
CROOKSTON      SUNNY     48  48 100 S6        30.09S
STEPHEN NDAWN    N/A     52  48  87 S5          N/A
GREENBUSH NDAW   N/A     52  50  93 S3          N/A
$$
  *****  WEATHER ACROSS CENTRAL AND WEST MINNESOTA  *****

CITY           SKY/WX    TMP DP  RH WIND       PRES   REMARKS
FOSSTON        SUNNY     52  50  93 S5        30.12S
BEMIDJI        SUNNY     51  50  95 SW3       30.12S
PARK RAPIDS    SUNNY     55  51  86 CALM      30.13S
ELBOW LAKE     FAIR      53  53 100 S6        30.16S
WADENA         NOT AVBL
DETROIT LAKES  SUNNY     55  52  88 SW5       30.14S
MOORHEAD       SUNNY     52  50  93 S5        30.13R
FERGUS FALLS   SUNNY     54  54 100 SE3       30.16S
MORRIS MN      SUNNY     52  52 100 CALM      30.16R
STAPLES        SUNNY     52  52 100 S3        30.15S
$$
  *****  WEATHER ELSEWHERE ACROSS MINNESOTA  *****

CITY           SKY/WX    TMP DP  RH WIND       PRES   REMARKS
DULUTH         MOSUNNY   58  53  84 NW6       30.14R
INTRNTL FALLS  SUNNY     49  48  97 VRB3      30.11R
ELY            SUNNY     52  50  93 CALM      30.13S
CLOQUET        SUNNY     55  50  82 NW5       30.14S
WHEATON        NOT AVBL
BRAINERD       SUNNY     54  54 100 S5        30.15S
HIBBING        SUNNY     53  51  93 CALM      30.14S
ALEXANDRIA     SUNNY     56  54  93 CALM      30.17S
SAINT CLOUD    SUNNY     56  55  97 CALM      30.16R
MINNEAPOLIS    SUNNY     59  54  83 SW5       30.18R
$$

  *****  WEATHER ACROSS SOUTH DAKOTA  *****

CITY           SKY/WX    TMP DP  RH WIND       PRES   REMARKS
SIOUX FALLS    CLOUDY    54  53  97 CALM      30.19S
BROOKINGS      SUNNY     51  49  92 CALM      30.19S
WATERTOWN      SUNNY     52  49  89 CALM      30.17S
HURON          SUNNY     51  48  89 CALM      30.17S
SISSETON         N/A     54  51  90 CALM      30.14S
ABERDEEN       SUNNY     48  44  86 S5        30.17R
MITCHELL       SUNNY     51  49  92 VRB3G28   30.19S
PIERRE         CLOUDY    53  50  89 CALM      30.15F
MOBRIDGE       MOSUNNY   55  49  80 S6        30.13S
RAPID CITY     RAIN      52  51  97 W10       30.15F
$$

  *****  SOME WEATHER IN NEARBY STATES *****

CITY           SKY/WX    TMP DP  RH WIND       PRES   REMARKS
GLASGOW MT     CLOUDY    53  48  83 W12       30.05S
GREAT FALLS MT CLOUDY    48  42  80 SW5       30.16S
CHEYENNE WY    CLOUDY    53  47  79 CALM      30.20S
SCOTTSBLUFF NE PTCLDY    56  51  84 E9        30.13S
OMAHA NE       CLOUDY    62  57  83 NW5       30.17R
DES MOINES IA  CLOUDY    66  59  78 E6        30.18R
DAVENPORT IA   CLOUDY    66  62  87 NE6       30.18R
CHICAGO IL     PTSUNNY   68  60  75 N5        30.16R
EAU CLAIRE WI  SUNNY     57  56  96 W3        30.17R
LA CROSSE WI   SUNNY     62  60  93 SE3       30.19R
$$

  *****  SOME NATIONAL WEATHER *****

CITY           SKY/WX    TMP DP  RH WIND       PRES   REMARKS
LA GUARDIA NY  PTSUNNY   81  72  74 W3        29.98S
RALEIGH NC     MOSUNNY   80  71  74 CALM      30.10S
ATLANTA GA     MOSUNNY   81  71  71 E3        30.13R
NEW ORLEANS LA PTSUNNY   83  77  82 NE9       30.02S HX  92
OKLAHOMA CITY  PTSUNNY   70  67  90 E5        30.07S
ALBUQUERQUE NM CLOUDY    60  55  83 N10       30.23R
SALT LAKE CITY PTCLDY    65  38  36 SE10      30.03R
LOS ANGELES CA MOCLDY    66  56  70 SE5       29.93R
BOISE ID       MOCLDY    59  34  39 S6        29.97R
SEATTLE WA     PTCLDY    64  53  67 CALM      29.95F
$$

*** WEATHER ACROSS MANITOBA...SASKATCHEWAN AND ONTARIO ***
                ***ONTARIO***

CITY           SKY/WX    TMP DP  RH WIND       PRES   REMARKS
GERALDTON      MOSUNNY   52  50  93 W6        30.06R
THUNDER BAY    MOSUNNY   57  52  82 NW3       30.09R
SIOUX LOOKOUT  NOT AVBL
TORONTO        MOSUNNY   73  63  68 W5        30.07R
BIG TROUT LK   MOSUNNY   59  52  77 SW9       29.89R
PICKLE LAKE    MOSUNNY   54  48  82 W8        30.01R
DRYDEN         SUNNY     54  54 100 S7        30.08R
KENORA         NOT AVBL
$$
                *** MANITOBA***

CITY           SKY/WX    TMP DP  RH WIND       PRES   REMARKS
BRANDON        MOSUNNY   48  46  93 CALM      30.00F
DAUPHIN        SUNNY     57  48  72 W5        29.95F
ISLAND LAKE    NOT AVBL
PILOT MOUND      N/A     48  45  87 S5          N/A
THE PAS        PTSUNNY   55  54  94 CALM      29.88S
THOMPSON       CLOUDY    54  52  94 N5        29.90S
WINNIPEG       MOSUNNY   54  48  82 S6        30.03F
LYNN LAKE      PTSUNNY   52  48  87 MISG      29.94S
CHURCHILL      PTSUNNY   48  39  71 N14G20    29.90R
GILLAM         CLOUDY    50  45  81 NE8       29.89S
$$
                ***SASKATCHEWAN***

CITY           SKY/WX    TMP DP  RH WIND       PRES   REMARKS
ESTEVAN        MOCLDY    54  50  87 SW6       30.03S
KINDERSLEY     CLOUDY    52  52 100 NW8       30.02S
LLOYDMINSTER   PTCLDY    48  46  93 NW9       30.02S
PRINCE ALBERT  RAIN      55  55 100 N7        29.91S FOG
REGINA         LGT RAIN  52  52 100 SW7       29.99F
YORKTON        CLOUDY    55  54  94 SW7       29.96S
N. BATTLEFORD  MOCLDY    54 N/A N/A NW8       30.00S
LA RONGE       MOCLDY    55  54  94 N9        29.94S
SASKATOON      CLOUDY    55  55 100 NW8       29.96S
SWIFT CURRENT  LGT RAIN  52  52 100 W13       30.00F FOG
$$
NOTE: THESE ARE AUTOMATED STATIONS WITH LIMITED QUALITY CONTROL
      "FAIR" INDICATES FEW OR NO CLOUDS BELOW 12,000 FEET WITH NO
      SIGNIFICANT WEATHER AND/OR OBSTRUCTIONS TO VISIBILITY.
      SKY/WX - SKY CONDITION AND SIGNIFICANT WEATHER.
      TMP - AIR TEMPERATURE.    DP   - DEWPOINT TEMPERATURE.
      RH  - RELATIVE HUMIDITY.  PRES - PRESSURE.
      HX  - HEAT INDEX.         WCI  - WIND CHILL INDEX.
$




USA.gov is the U.S. government's official web portal to all federal, state and local government web resources and services.